This demonstration page uses our WeatherBlox Daily Observations layout. Learn more.

Left ArrowRight Arrow

39.51506, -84.39828

Hourly Observations for February 24, 2021

Temp ( °F °C ) Dew Point ( °F °C ) Humidity (%) Winds ( mph kmh ) Pressure ( in mb ) Visibility ( mi km ) Precip ( " mm )
12:15 am 00:15 Clear 27 -2.7 27 -2.8 99 99 Calm 30.02 1017 10 16 0.00 0.00
12:35 am 00:35 Clear 28 -2.2 27 -2.7 96 96 Calm 30.02 1017 10 16 0.00 0.00
12:55 am 00:55 Clear 28 -2.4 27 -2.9 96 96 Calm 30.01 1016 10 16 0.00 0.00
1:15 am 01:15 Clear 28 -2.3 27 -2.7 97 97 Calm 30.01 1016 10 16 0.00 0.00
1:35 am 01:35 Clear 28 -2.4 28 -2.5 99 99 Calm 30.00 1016 10 16 0.00 0.00
1:55 am 01:55 Clear 28 -2.3 28 -2.4 99 99 ENE 3 6 30.00 1016 10 16 0.00 0.00
2:15 am 02:15 Clear 28 -2.3 28 -2.4 99 99 Calm 29.99 1016 10 16 0.00 0.00
2:35 am 02:35 Clear 28 -2.3 27 -2.6 98 98 Calm 29.98 1015 10 16 0.00 0.00
2:55 am 02:55 Clear 28 -2.2 27 -2.6 97 97 Calm 29.98 1015 10 16 0.00 0.00
3:15 am 03:15 Clear 28 -2.5 27 -2.9 97 97 ENE 3 6 29.97 1015 10 16 0.00 0.00
3:35 am 03:35 Clear 28 -2.1 28 -2.5 97 97 NW 3 6 29.96 1015 10 16 0.00 0.00
3:55 am 03:55 Clear 28 -2 27 -2.7 95 95 NW 3 6 29.96 1015 10 16 0.00 0.00
4:15 am 04:15 Clear 30 -1.1 28 -2 94 94 Calm 29.96 1014 10 16 0.00 0.00
4:35 am 04:35 Clear 29 -1.6 28 -2.4 94 94 Calm 29.96 1015 10 16 0.00 0.00
4:55 am 04:55 Clear 30 -1.3 28 -2 95 95 NW 3 6 29.96 1015 10 16 0.00 0.00
5:15 am 05:15 Clear 29 -1.7 28 -2.1 97 97 SSW 5 7 29.96 1015 10 16 0.00 0.00
5:35 am 05:35 Clear 28 -2.4 27 -2.7 98 98 SSW 5 7 29.96 1015 10 16 0.00 0.00
5:55 am 05:55 Clear 29 -1.9 28 -2.5 96 96 SSW 5 7 29.95 1014 10 16 0.00 0.00
6:15 am 06:15 Clear 29 -1.8 27 -2.7 94 94 SSW 6 9 29.94 1014 10 16 0.00 0.00
6:35 am 06:35 Clear 31 -0.5 28 -2.3 88 88 SSW 7 11 29.93 1013 10 16 0.00 0.00
6:55 am 06:55 Clear 33 0.3 29 -1.4 89 89 SW 3 6 29.92 1013 10 16 0.00 0.00
7:15 am 07:15 Clear 30 -0.9 28 -2.4 90 90 SSW 6 9 29.92 1013 10 16 0.00 0.00
7:35 am 07:35 Sunny 37 2.5 31 -0.5 81 81 SSW 7 11 29.91 1013 10 16 0.00 0.00
7:55 am 07:55 Sunny 37 2.9 32 0.1 82 82 SSW 7 11 29.91 1013 10 16 0.00 0.00
8:15 am 08:15 Mostly Cloudy 40 4.5 34 1.2 79 79 SSW 8 13 29.90 1013 10 16 0.00 0.00
8:35 am 08:35 Mostly Cloudy 44 6.4 34 1.1 69 69 S 13 20 29.89 1012 10 16 0.00 0.00
8:55 am 08:55 Cloudy 46 8 34 1 62 62 SSW 13 20 29.88 1012 10 16 0.00 0.00
9:15 am 09:15 Cloudy 45 7.3 35 1.6 67 67 SW 8 13 29.89 1012 10 16 0.00 0.00
9:35 am 09:35 Mostly Cloudy 46 7.6 35 1.8 67 67 WSW 6 9 29.89 1012 10 16 0.00 0.00
9:55 am 09:55 Sunny 52 10.9 35 1.9 54 54 SW 16 26 29.88 1012 10 16 0.00 0.00
10:15 am 10:15 Partly Cloudy 54 12 35 1.5 49 49 SW 18 30 29.86 1011 10 16 0.00 0.00
10:35 am 10:35 Partly Cloudy 55 12.8 35 1.8 47 47 SSW 17 28 29.84 1011 10 16 0.00 0.00
10:55 am 10:55 Sunny 56 13.4 36 2.1 47 47 SW 17 28 29.85 1011 10 16 0.00 0.00
11:15 am 11:15 Partly Cloudy 58 14.2 36 2.2 45 45 SW 22 35 29.84 1010 10 16 0.00 0.00
11:35 am 11:35 Partly Cloudy 57 14.1 37 2.5 46 46 SW 18 30 29.84 1010 10 16 0.00 0.00
11:55 am 11:55 Sunny 60 15.8 38 3.1 43 43 SW 15 24 29.82 1010 10 16 0.00 0.00
12:15 pm 12:15 Sunny 62 16.8 38 3.6 42 42 SW 20 31 29.82 1010 10 16 0.00 0.00
12:35 pm 12:35 Sunny 63 17 39 3.9 42 42 SW 22 35 29.82 1010 10 16 0.00 0.00
12:55 pm 12:55 Sunny 63 17.3 40 4.3 42 42 WSW 20 31 29.81 1010 10 16 0.00 0.00
1:15 pm 13:15 Partly Cloudy 64 17.6 40 4.6 42 42 SW 25 41 29.81 1009 10 16 0.00 0.00
1:35 pm 13:35 Mostly Cloudy 62 16.5 40 4.5 45 45 WSW 16 26 29.80 1009 10 16 0.00 0.00
1:55 pm 13:55 Sunny 63 17.3 40 4.6 43 43 WSW 18 30 29.80 1009 10 16 0.00 0.00
2:15 pm 14:15 Cloudy 61 16.2 40 4.7 47 47 WSW 20 31 29.81 1010 10 16 0.00 0.00
2:35 pm 14:35 Cloudy 60 15.7 41 4.8 49 49 W 18 30 29.82 1010 10 16 0.00 0.00
2:55 pm 14:55 Cloudy with Rain 58 14.2 42 5.7 57 57 W 18 30 29.86 1011 10 16 0.00 0.00
3:15 pm 15:15 Cloudy 56 13.3 45 7.2 67 67 W 10 17 29.87 1012 10 16 0.00 0.00
3:35 pm 15:35 Cloudy with Light Rain 54 12.3 45 7.1 71 71 W 10 17 29.89 1012 10 16 0.00 0.00
3:55 pm 15:55 Cloudy 55 12.6 43 6.3 66 66 W 10 17 29.90 1013 10 16 0.00 0.00
4:15 pm 16:15 Cloudy 56 13.1 43 5.9 62 62 W 9 15 29.91 1013 10 16 0.00 0.00
4:35 pm 16:35 Mostly Cloudy 55 12.5 40 4.3 58 58 WNW 13 20 29.92 1013 10 16 0.00 0.00
4:55 pm 16:55 Partly Cloudy 54 12.2 36 2.4 51 51 WNW 22 35 29.94 1014 10 16 0.00 0.00
5:15 pm 17:15 Partly Cloudy 53 11.7 35 1.5 50 50 WNW 12 19 29.95 1014 10 16 0.00 0.00
5:35 pm 17:35 Sunny 52 11.2 35 1.4 51 51 WNW 9 15 29.97 1015 10 16 0.00 0.00
5:55 pm 17:55 Sunny 52 10.9 33 0.7 50 50 W 12 19 29.98 1015 10 16 0.00 0.00
6:15 pm 18:15 Sunny 50 10.1 33 0.7 52 52 WNW 7 11 30.00 1016 10 16 0.00 0.00
6:35 pm 18:35 Clear 49 9.7 32 0.2 52 52 WNW 9 15 30.01 1016 10 16 0.00 0.00
6:55 pm 18:55 Clear 49 9.2 32 0.2 54 54 W 9 15 30.02 1017 10 16 0.00 0.00
7:15 pm 19:15 Clear 48 8.8 32 0.2 55 55 WNW 12 19 30.04 1017 10 16 0.00 0.00
7:35 pm 19:35 Clear 47 8.1 33 0.5 59 59 NW 13 20 30.06 1018 10 16 0.00 0.00
7:55 pm 19:55 Clear 45 7.3 33 0.6 63 63 NNW 13 20 30.08 1018 10 16 0.00 0.00
8:15 pm 20:15 Clear 44 6.6 33 0.5 65 65 NNW 13 20 30.09 1019 10 16 0.00 0.00
8:35 pm 20:35 Clear 42 5.8 33 0.8 71 71 NW 9 15 30.11 1020 10 16 0.00 0.00
8:55 pm 20:55 Clear 42 5.3 34 0.9 74 74 NNW 13 20 30.13 1020 10 16 0.00 0.00
9:15 pm 21:15 Clear 40 4.6 33 0.8 77 77 NNW 9 15 30.14 1021 10 16 0.00 0.00
9:35 pm 21:35 Clear 39 4.1 33 0.6 78 78 NNW 6 9 30.15 1021 10 16 0.00 0.00
9:55 pm 21:55 Clear 39 3.9 33 0.7 80 80 NNW 9 15 30.17 1022 10 16 0.00 0.00
10:15 pm 22:15 Clear 38 3.4 33 0.5 82 82 N 8 13 30.19 1022 10 16 0.00 0.00
10:35 pm 22:35 Clear 38 3.4 32 0.2 80 80 NNW 15 24 30.20 1023 10 16 0.00 0.00
10:55 pm 22:55 Clear 38 3.5 32 -0.1 78 78 NNW 13 20 30.21 1023 10 16 0.00 0.00
11:15 pm 23:15 Cloudy 38 3.5 31 -0.5 75 75 NNW 9 15 30.22 1023 10 16 0.00 0.00
11:35 pm 23:35 Cloudy 38 3.4 31 -0.4 76 76 N 10 17 30.22 1023 10 16 0.00 0.00
11:55 pm 23:55 Cloudy 38 3.3 31 -0.4 77 77 N 7 11 30.23 1024 10 16 0.00 0.00

Powered by AerisWeather